Location: Bats
(43.6587°N, 0.4584°W)
Time: 06:12:31
(UTC+00:00)

DNEPR-1 R/B - Pass Details

Date: 12 January 2026
Orbit: 586 x 1327 km, 64.6° (Epoch: 10 February)

Event Time Altitude Azimuth Distance (km) Brightness Sun altitude
Rises 18:03:27 0° 190° (S) 3,065 7.5 -13.5°
Reaches altitude 10° 18:06:04 10° 181° (S) 2,065 6.5 -14.0°
Maximum altitude 18:10:09 33° 117° (ESE) 1,035 4.3 -14.7°
Enters shadow 18:11:40 26° 79° (ENE) 1,209 4.4 -14.9°
